Probability
0 0 0 0 0 0 0 0 0 0 0 0 0 0 0 0 0 0 3 3 6 10 16 32 35 32 35 42 39 39 29 32 32 29 32 29 23 23 23 26 19 26 23 23 23 29 19 23 23
0 0 0 0 0 0 0 0 0 0 0 0 0 0 0 0 0 0 3 6 13 6 13 19 29 32 32 32 35 42 32 32 32 35 26 29 26 19 16 19 23 19 19 19 19 10 16 19 19
0 0 0 0 0 0 0 0 0 0 0 0 0 0 0 0 0 0 3 10 6 3 3 16 29 23 29 32 32 32 23 29 35 35 35 29 29 19 23 23 19 16 16 19 19 13 13 16 19
0 0 0 0 0 0 0 0 0 0 0 0 0 0 0 0 0 0 3 3 3 0 3 16 26 23 29 29 32 29 26 23 29 32 35 32 23 23 26 23 26 19 19 16 16 13 13 13 16
0 0 0 0 0 0 0 0 0 0 0 0 0 0 0 0 0 0 0 3 0 0 3 10 29 23 29 29 32 29 26 26 29 29 26 32 23 23 23 19 23 16 13 13 13 13 13 13 16
0 0 0 0 0 0 0 0 0 0 0 0 0 0 0 0 0 0 0 0 3 0 3 10 23 19 19 26 23 23 26 26 26 29 23 19 13 16 19 23 16 16 13 10 10 13 13 13 10
0 0 0 0 0 0 0 0 0 0 0 0 0 0 0 0 0 0 0 3 3 0 0 6 13 13 16 16 13 16 19 19 23 23 19 19 19 13 16 19 16 16 13 13 13 13 13 13 13
0 0 0 0 0 0 0 0 0 0 0 0 0 0 0 0 0 0 0 3 3 0 0 0 6 3 3 10 10 13 13 16 16 16 13 13 10 10 6 6 16 16 13 10 10 10 10 13 13
0 0 0 0 0 0 0 0 0 0 0 0 0 0 0 0 0 0 0 0 3 0 0 0 3 6 0 0 3 0 0 0 0 3 3 3 3 3 3 3 3 3 10 10 6 6 10 13 6
0 0 0 0 0 0 0 0 0 0 0 0 0 0 0 0 0 0 0 3 3 3 0 0 3 3 3 0 0 0 0 0 0 0 0 0 0 0 0 3 3 3 3 6 6 6 10 3 0
0 0 0 0 0 0 0 0 0 0 0 0 0 0 0 0 0 0 0 0 0 0 0 0 0 0 3 0 0 0 0 0 0 0 0 0 0 0 0 0 0 0 0 0 3 6 0 0 0
0 0 0 0 0 0 0 0 0 0 0 0 0 0 0 0 0 0 0 0 0 0 0 0 0 0 0 0 0 0 0 0 0 0 0 0 0 0 0 0 0 0 0 0 0 0 0 0 0
0 0 0 0 0 0 0 0 0 0 0 0 0 0 0 0 0 0 0 0 0 0 0 0 0 0 0 0 0 0 0 0 0 0 0 0 0 0 0 0 0 0 0 0 0 0 0 0 0
0 0 0 0 0 0 0 0 0 0 0 0 0 0 0 0 0 0 0 0 0 0 0 0 0 0 0 0 0 0 0 0 0 0 0 0 0 0 0 0 0 0 0 0 0 0 0 0 0
0 0 0 0 0 0 0 0 0 0 0 0 0 0 0 0 0 0 0 0 0 0 0 0 0 0 0 0 0 0 0 0 0 0 0 0 0 0 0 0 0 0 0 0 0 0 0 0 0
0 0 0 0 0 0 0 0 0 0 0 0 0 0 0 0 0 0 0 0 0 0 0 0 0 0 0 0 0 0 0 0 0 0 0 0 0 0 0 0 0 0 0 0 0 0 0 0 0
0 0 0 0 0 0 0 0 0 0 0 0 0 0 0 0 0 0 0 0 0 0 0 0 0 0 0 0 0 0 0 0 0 0 0 0 0 0 0 0 0 0 0 0 0 0 0 0 0
0 0 0 0 0 0 0 0 0 0 0 0 0 0 0 0 0 0 0 0 0 0 0 0 0 0 0 0 0 0 0 0 0 0 0 0 0 0 0 0 0 0 0 0 0 0 0 0 0
0 0 0 0 0 0 0 0 0 0 0 0 0 0 0 0 0 0 0 0 0 0 0 0 0 0 0 0 0 0 0 0 0 0 0 0 0 0 0 0 0 0 0 0 0 0 0 0 0
0 0 0 0 0 0 0 0 0 0 0 0 0 0 0 0 0 0 0 0 0 0 0 0 0 0 0 0 0 0 0 0 0 0 0 0 0 0 0 0 0 0 0 0 0 0 0 0 0
0 0 0 0 0 0 0 0 0 0 0 0 0 0 0 0 0 0 0 0 0 0 0 0 0 0 0 0 0 0 0 0 0 0 0 0 0 0 0 0 0 0 0 0 0 0 0 0 0
0 0 0 0 0 0 0 0 0 0 0 0 0 0 0 0 0 0 0 0 0 0 0 0 0 0 0 0 0 0 0 0 0 0 0 0 0 0 0 0 0 0 0 0 0 0 0 0 0
0 0 0 0 0 0 0 0 0 0 0 0 0 0 0 0 0 0 0 0 0 0 0 0 0 0 0 0 0 0 0 0 0 0 0 0 0 0 0 0 0 0 0 0 0 0 0 0 0
0 0 0 0 0 0 0 0 0 0 0 0 0 0 0 0 0 0 0 0 0 0 0 0 0 0 0 0 0 0 0 0 0 0 0 0 0 0 0 0 0 0 0 0 0 0 0 0 0
0 0 0 0 0 0 0 0 0 0 0 0 0 0 0 0 0 0 0 0 0 0 0 0 0 0 0 0 0 0 0 0 0 0 0 0 0 0 0 0 0 0 0 0 0 0 0 0 0
0 0 0 0 0 0 0 0 0 0 0 0 0 0 0 0 0 0 0 0 0 0 0 0 0 0 0 0 0 0 0 0 0 0 0 0 0 0 0 0 0 0 0 0 0 0 0 0 0
0 0 0 0 0 0 0 0 0 0 0 0 0 0 0 0 0 0 0 0 0 0 0 0 0 0 0 0 0 0 0 0 0 0 0 0 0 0 0 0 0 0 0 0 0 0 0 0 0
0 0 0 0 0 0 0 0 0 0 0 0 0 0 0 0 0 0 0 0 0 0 0 0 0 0 0 0 0 0 0 0 0 0 0 0 0 0 0 0 0 0 0 0 0 0 0 0 0
0 0 0 0 0 0 0 0 0 0 0 0 0 0 0 0 0 0 0 0 0 0 0 0 0 0 0 0 0 0 0 0 0 0 0 0 0 0 0 0 0 0 0 0 0 0 0 0 0
0 0 0 0 0 0 0 0 0 0 0 0 0 0 0 0 0 0 0 0 0 0 0 0 0 0 0 0 0 0 0 0 0 0 0 0 0 0 0 0 0 0 0 0 0 0 0 0 0
Height
5828 5828 5829 5830 5831 5831 5831 5832 5832 5832 5833 5833 5834 5835 5835 5836 5837 5840 5839 5838 5839 5840 5840 5841 5841 5842 5842 5843 5844 5845 5846 5847 5848 5848 5849 5850 5851 5852 5852 5853 5853 5854 5855 5855 5856 5856 5857 5857 5858
5825 5825 5826 5827 5827 5827 5828 5829 5829 5829 5829 5829 5830 5831 5831 5832 5833 5834 5834 5834 5835 5835 5836 5837 5837 5838 5839 5839 5840 5841 5842 5844 5845 5846 5847 5848 5848 5849 5850 5851 5851 5852 5853 5853 5854 5855 5855 5856 5857
5821 5822 5823 5823 5823 5824 5825 5825 5825 5825 5825 5826 5826 5827 5827 5828 5829 5829 5830 5830 5831 5831 5832 5833 5833 5834 5835 5835 5836 5837 5838 5840 5841 5842 5843 5845 5846 5847 5847 5848 5849 5850 5851 5851 5852 5853 5853 5854 5855
5818 5818 5819 5820 5820 5820 5820 5820 5820 5821 5821 5821 5822 5822 5823 5824 5824 5825 5825 5826 5826 5827 5827 5828 5829 5829 5830 5831 5832 5833 5834 5835 5837 5838 5840 5841 5842 5843 5844 5845 5846 5847 5848 5849 5850 5850 5851 5852 5853
5814 5814 5815 5815 5815 5816 5816 5816 5816 5816 5817 5817 5817 5818 5818 5819 5819 5820 5820 5821 5821 5822 5822 5823 5824 5824 5825 5826 5827 5828 5829 5830 5832 5834 5835 5837 5838 5839 5841 5842 5843 5844 5845 5846 5847 5847 5848 5849 5850
5810 5810 5811 5811 5811 5811 5811 5811 5811 5812 5812 5812 5813 5813 5813 5814 5814 5815 5815 5816 5816 5817 5817 5818 5818 5819 5820 5821 5822 5823 5824 5825 5827 5829 5830 5832 5833 5835 5836 5838 5839 5840 5841 5842 5843 5844 5845 5846 5847
5806 5806 5806 5806 5807 5806 5807 5806 5806 5807 5807 5807 5807 5808 5808 5809 5809 5809 5809 5810 5811 5811 5812 5812 5813 5813 5814 5815 5817 5818 5819 5820 5821 5823 5825 5826 5828 5830 5831 5833 5834 5836 5836 5838 5839 5840 5841 5842 5844
5801 5801 5801 5801 5801 5802 5802 5801 5801 5801 5801 5802 5802 5802 5803 5803 5803 5803 5804 5804 5805 5806 5806 5806 5807 5807 5808 5809 5810 5811 5813 5814 5816 5817 5819 5821 5822 5824 5826 5827 5829 5831 5832 5833 5835 5836 5837 5838 5839
5796 5797 5796 5796 5796 5797 5796 5796 5796 5795 5796 5796 5796 5797 5797 5797 5797 5798 5798 5798 5799 5800 5800 5800 5801 5801 5802 5803 5804 5805 5806 5808 5809 5811 5813 5814 5817 5818 5820 5822 5824 5825 5827 5828 5830 5831 5832 5833 5835
5790 5791 5791 5791 5791 5791 5790 5790 5790 5790 5790 5790 5790 5790 5790 5791 5791 5792 5792 5792 5793 5793 5794 5794 5794 5794 5795 5796 5797 5798 5799 5801 5803 5804 5806 5808 5810 5812 5814 5816 5818 5819 5821 5823 5824 5826 5827 5828 5830
5785 5785 5785 5785 5784 5784 5784 5784 5783 5783 5784 5784 5784 5784 5783 5784 5784 5785 5785 5786 5786 5786 5787 5787 5787 5787 5788 5789 5790 5791 5792 5794 5795 5797 5799 5802 5804 5806 5807 5809 5811 5813 5814 5816 5818 5820 5821 5823 5824
5779 5779 5779 5778 5778 5777 5777 5777 5777 5777 5777 5777 5776 5776 5776 5777 5777 5778 5778 5779 5779 5779 5780 5780 5780 5780 5781 5781 5782 5784 5785 5787 5788 5790 5792 5795 5797 5799 5800 5802 5804 5806 5808 5810 5811 5813 5815 5817 5818
5772 5772 5772 5771 5771 5770 5770 5770 5770 5770 5770 5769 5769 5769 5769 5769 5770 5770 5771 5771 5772 5772 5772 5772 5772 5772 5773 5774 5775 5776 5778 5779 5781 5783 5785 5787 5789 5791 5793 5795 5797 5799 5801 5803 5804 5806 5808 5810 5812
5765 5765 5765 5764 5763 5763 5763 5762 5762 5763 5763 5762 5762 5762 5762 5762 5762 5763 5763 5764 5764 5764 5764 5764 5765 5765 5766 5766 5768 5769 5770 5771 5773 5775 5777 5779 5781 5784 5786 5788 5790 5792 5793 5795 5797 5799 5801 5803 5805
5757 5757 5757 5757 5756 5756 5755 5755 5756 5755 5755 5755 5754 5755 5755 5755 5755 5755 5755 5756 5756 5756 5756 5757 5757 5757 5758 5759 5760 5761 5763 5764 5765 5767 5768 5771 5773 5776 5778 5781 5782 5784 5786 5788 5789 5791 5793 5796 5798
5749 5749 5749 5750 5748 5747 5748 5748 5748 5747 5747 5747 5747 5747 5747 5747 5747 5748 5748 5748 5748 5749 5749 5749 5750 5750 5751 5752 5753 5754 5755 5756 5758 5759 5761 5763 5765 5767 5770 5773 5775 5776 5778 5780 5782 5783 5786 5788 5791
5741 5741 5741 5741 5740 5739 5739 5740 5740 5739 5738 5738 5739 5739 5739 5739 5740 5740 5740 5740 5741 5741 5742 5742 5742 5743 5743 5744 5745 5746 5747 5748 5750 5751 5753 5754 5756 5759 5761 5764 5766 5768 5770 5771 5773 5775 5778 5780 5783
5733 5732 5732 5731 5730 5729 5729 5730 5731 5730 5730 5730 5730 5731 5731 5731 5732 5732 5732 5733 5733 5734 5734 5734 5735 5735 5736 5737 5738 5739 5740 5741 5742 5743 5744 5746 5748 5750 5752 5755 5757 5759 5761 5763 5765 5767 5769 5772 5774
5723 5722 5721 5722 5719 5718 5719 5721 5721 5721 5721 5722 5722 5722 5723 5723 5723 5724 5724 5724 5725 5726 5726 5726 5727 5728 5728 5729 5730 5731 5732 5733 5734 5735 5736 5737 5739 5741 5744 5746 5748 5750 5753 5755 5756 5758 5761 5764 5766
5712 5711 5711 5711 5709 5708 5708 5710 5711 5711 5711 5712 5712 5713 5714 5715 5715 5715 5716 5716 5717 5718 5718 5718 5719 5720 5721 5721 5722 5723 5724 5724 5725 5726 5727 5729 5731 5733 5735 5737 5740 5742 5744 5746 5748 5750 5753 5755 5757
5702 5701 5701 5700 5699 5697 5697 5699 5701 5701 5701 5702 5703 5704 5705 5706 5707 5707 5708 5708 5709 5709 5710 5711 5711 5712 5713 5713 5714 5715 5716 5716 5717 5718 5719 5721 5723 5725 5726 5729 5731 5733 5735 5737 5739 5741 5743 5745 5747
5691 5691 5690 5688 5687 5687 5687 5686 5691 5691 5690 5691 5693 5694 5696 5697 5698 5699 5699 5699 5700 5701 5701 5702 5703 5704 5705 5705 5706 5707 5708 5709 5709 5710 5711 5712 5714 5715 5717 5720 5721 5723 5725 5727 5729 5731 5733 5735 5738
5681 5680 5678 5677 5676 5676 5677 5675 5680 5680 5681 5682 5683 5685 5686 5687 5688 5689 5690 5690 5691 5691 5693 5694 5695 5696 5696 5697 5698 5698 5699 5700 5701 5701 5703 5704 5705 5706 5708 5710 5712 5713 5715 5717 5719 5722 5724 5726 5728
5669 5669 5667 5666 5665 5665 5668 5666 5668 5670 5671 5673 5673 5675 5676 5678 5679 5679 5680 5681 5682 5682 5684 5685 5686 5687 5688 5689 5689 5690 5691 5691 5692 5692 5693 5695 5696 5697 5699 5700 5702 5704 5705 5707 5710 5712 5714 5716 5718
5659 5658 5657 5655 5654 5655 5658 5655 5658 5661 5661 5662 5663 5664 5666 5667 5669 5670 5671 5672 5673 5674 5675 5676 5677 5678 5679 5680 5681 5681 5682 5682 5683 5683 5684 5685 5686 5688 5689 5690 5692 5694 5696 5698 5700 5702 5704 5706 5708
5648 5648 5648 5646 5645 5646 5647 5646 5650 5651 5651 5652 5653 5654 5655 5657 5659 5660 5661 5662 5663 5664 5665 5666 5668 5669 5670 5671 5671 5672 5673 5673 5674 5674 5675 5676 5677 5678 5679 5680 5682 5684 5686 5687 5690 5692 5694 5696 5698
5637 5637 5638 5637 5635 5635 5636 5637 5639 5641 5641 5642 5643 5644 5646 5647 5648 5650 5651 5652 5653 5654 5656 5657 5658 5660 5660 5661 5662 5663 5663 5664 5665 5665 5666 5667 5668 5668 5669 5671 5672 5674 5675 5678 5679 5682 5684 5685 5687
5627 5628 5627 5626 5625 5625 5626 5627 5630 5631 5632 5633 5634 5634 5635 5637 5638 5639 5641 5642 5643 5644 5646 5647 5649 5650 5651 5652 5653 5653 5654 5655 5656 5656 5657 5657 5658 5659 5660 5661 5662 5664 5665 5667 5669 5671 5673 5674 5676
5618 5618 5617 5617 5617 5617 5617 5621 5621 5623 5623 5624 5625 5625 5626 5627 5628 5630 5631 5633 5634 5635 5636 5638 5639 5640 5641 5642 5644 5644 5645 5646 5646 5647 5647 5648 5649 5649 5650 5652 5653 5654 5655 5657 5658 5660 5662 5663 5664
5607 5607 5608 5608 5608 5609 5609 5613 5613 5614 5614 5615 5616 5616 5617 5618 5619 5620 5622 5623 5625 5626 5627 5628 5630 5631 5632 5633 5634 5635 5636 5636 5637 5638 5638 5638 5639 5640 5641 5642 5643 5645 5646 5647 5648 5649 5650 5651 5652
Wind_Speed
15 15 15 16 17 17 17 16 17 18 18 18 18 18 18 18 18 18 17 17 18 17 17 17 17 17 17 17 17 16 16 16 15 15 15 14 14 13 13 12 12 11 11 12 11 11 11 10 10
16 16 16 17 17 17 17 17 17 18 18 18 18 18 19 19 19 19 18 19 19 19 19 19 19 19 19 19 19 19 19 18 18 17 17 16 16 15 15 15 14 13 13 13 13 13 12 12 11
17 17 17 18 18 18 17 18 19 19 19 19 20 20 20 19 19 19 19 20 20 21 21 21 21 21 21 21 21 21 21 21 20 20 19 19 18 17 17 17 17 16 16 15 15 15 14 14 13
18 18 18 19 18 18 19 19 20 19 19 19 20 20 20 20 20 20 20 20 21 21 22 22 23 23 23 22 22 23 23 23 23 22 21 21 20 20 19 19 18 18 18 17 17 17 16 16 15
19 19 19 19 19 19 20 21 21 20 20 20 21 21 21 21 21 22 21 21 22 22 22 22 23 24 24 24 24 24 24 24 24 24 23 23 23 22 21 21 20 19 19 19 19 19 18 18 17
20 20 20 19 19 20 21 21 21 21 21 21 21 21 21 22 22 23 23 23 23 23 23 23 23 25 25 25 25 25 25 25 26 26 25 25 25 24 24 23 22 21 21 21 20 21 20 20 19
21 21 21 20 20 21 21 22 22 22 22 22 22 22 22 22 23 23 24 24 24 24 24 24 24 25 26 27 27 27 27 27 27 27 27 27 27 26 25 24 24 24 23 22 22 22 22 21 21
21 21 21 21 21 22 22 23 23 23 23 23 23 23 23 23 24 24 25 25 25 25 25 25 25 26 27 28 28 29 29 28 28 28 28 29 28 28 27 26 26 25 25 24 24 24 24 23 23
21 22 21 21 22 22 23 24 24 24 24 24 24 24 24 24 24 24 25 25 25 25 26 26 26 27 28 28 29 29 30 30 30 29 29 29 29 29 29 28 27 27 27 26 26 26 26 25 24
23 23 22 23 23 24 24 25 25 25 26 25 25 26 26 25 25 25 25 26 26 26 27 27 27 28 28 28 29 29 30 30 30 31 30 30 30 30 30 30 29 28 28 27 28 27 27 27 26
24 24 24 24 24 25 25 26 26 26 26 26 27 27 27 27 26 26 26 26 27 27 27 28 28 29 29 29 29 29 29 30 30 31 31 31 31 31 31 31 31 30 29 29 29 29 29 28 28
25 25 25 25 26 26 26 27 27 27 27 27 28 28 28 28 27 27 26 27 28 28 28 29 29 30 30 30 30 30 30 30 30 31 32 32 32 32 32 32 32 31 31 31 30 31 31 31 30
26 26 26 26 27 27 28 28 28 28 27 28 28 28 28 28 29 28 28 28 28 29 29 30 30 30 31 31 30 30 31 31 31 32 33 33 33 33 33 33 32 32 32 32 32 32 32 32 31
28 27 27 27 28 29 29 29 29 28 29 29 29 29 29 29 29 29 29 29 29 29 29 30 30 30 31 31 31 31 31 32 32 32 34 35 35 35 35 35 34 33 33 33 33 33 33 33 32
29 29 28 29 29 30 31 30 29 29 29 30 30 29 29 29 29 29 29 29 29 29 29 30 30 30 31 31 32 32 32 33 33 33 34 35 35 36 36 36 35 35 34 34 34 34 33 33 33
30 31 30 29 30 31 31 30 29 30 30 30 30 30 30 30 29 29 29 29 29 29 29 30 30 30 30 31 32 32 33 34 34 34 35 36 36 37 36 36 37 36 35 35 35 35 34 35 34
32 32 32 31 32 32 32 32 30 31 31 31 30 30 30 30 30 29 29 29 29 29 29 30 30 30 30 31 32 32 32 33 34 35 35 36 37 37 37 37 37 37 37 37 36 36 36 36 35
33 33 33 33 33 34 34 33 32 32 32 31 31 31 31 30 30 30 29 29 29 29 29 30 30 30 30 31 32 32 32 32 33 35 35 36 37 38 38 38 38 38 38 37 37 37 37 36 36
35 35 34 33 35 36 35 34 34 33 33 32 32 32 32 32 31 31 31 30 30 29 29 30 30 30 30 30 31 31 32 32 33 34 36 36 37 38 38 38 38 38 38 38 38 38 38 38 38
36 36 35 35 35 37 36 35 34 34 34 33 33 33 32 32 32 32 32 32 31 31 30 29 30 30 30 30 31 31 31 32 34 34 36 36 36 36 37 38 38 38 39 39 39 39 40 39 39
37 37 37 37 36 37 38 37 35 35 35 35 34 34 33 32 32 33 33 33 33 32 31 30 30 30 30 30 31 31 31 32 33 34 35 35 36 37 37 38 38 39 39 39 39 39 40 40 40
38 37 37 37 37 37 37 38 35 34 35 35 35 34 33 33 32 32 32 33 33 32 32 31 31 31 31 31 31 31 31 32 33 33 34 35 36 37 37 37 38 39 39 40 39 39 39 39 39
36 35 36 36 37 37 36 37 35 34 34 34 35 35 34 34 33 33 32 32 33 33 33 32 32 32 32 32 32 32 32 32 33 33 34 35 37 38 37 37 38 38 39 39 39 39 39 40 40
35 34 35 35 36 37 34 36 35 34 33 32 33 34 34 34 33 33 33 33 33 33 33 33 33 33 32 33 33 32 32 33 34 34 35 36 36 37 37 37 39 39 39 39 40 40 40 41 40
33 33 34 34 36 37 35 36 35 33 32 32 32 33 33 33 33 33 33 33 34 33 33 33 33 33 33 33 33 33 33 33 33 34 34 35 36 36 37 38 39 40 40 40 41 42 42 42 41
32 33 34 35 36 36 35 36 34 32 32 31 32 33 33 33 33 34 34 33 34 34 34 34 34 33 33 33 34 34 33 33 34 34 34 33 34 36 37 39 39 38 39 39 40 41 42 42 41
32 32 32 33 35 35 34 34 33 31 31 30 30 31 32 32 32 33 34 34 33 33 34 34 34 33 33 33 33 34 33 33 34 34 34 34 34 34 36 38 38 38 39 40 41 41 42 43 43
32 31 31 31 33 34 33 32 31 30 29 28 29 30 30 32 32 33 33 33 33 33 33 33 34 34 34 33 33 33 33 33 34 34 34 34 34 35 36 37 38 38 40 41 41 42 42 43 43
31 31 32 32 31 32 32 31 29 29 28 28 28 29 30 30 31 32 32 32 33 33 33 33 33 34 33 33 33 33 33 34 34 34 33 33 34 35 36 36 36 37 38 39 40 41 41 42 43
32 32 31 32 31 31 31 31 28 27 28 28 28 29 30 30 31 32 33 33 33 33 33 34 34 33 33 33 33 34 34 34 34 33 33 33 33 34 35 35 35 36 36 37 39 41 42 42 43
Wind_Direction
254 252 250 249 250 251 253 254 254 255 255 255 254 254 255 257 258 259 259 257 257 255 253 253 251 252 251 250 248 247 247 247 247 246 245 245 244 245 244 240 239 240 239 238 235 236 234 231 228
257 254 252 252 253 254 256 256 255 255 256 256 255 255 254 255 257 259 259 257 256 254 253 252 251 252 252 250 249 248 247 246 245 246 245 244 244 243 244 244 242 241 241 241 240 239 238 235 232
257 255 254 254 254 256 257 256 255 255 256 256 256 256 256 257 258 258 257 257 256 255 254 253 252 252 252 250 248 248 248 247 245 244 244 243 243 243 244 246 245 242 241 241 240 240 240 239 236
257 256 256 256 257 257 257 256 256 256 257 257 257 257 257 257 258 258 257 258 258 257 256 255 254 253 252 250 249 248 247 247 246 245 244 244 244 244 244 245 246 244 242 242 241 241 240 239 238
259 258 257 258 259 258 257 257 257 257 258 258 258 259 259 258 258 259 259 259 259 259 258 257 255 253 252 251 250 250 248 246 245 245 245 245 245 245 245 245 247 247 245 244 243 241 239 238 238
261 260 260 259 259 259 259 259 259 260 260 260 259 259 259 259 258 259 260 260 259 259 259 259 257 255 253 252 252 252 251 248 246 245 246 246 246 246 246 245 246 247 246 246 246 243 240 238 238
262 261 261 261 261 261 261 261 261 261 261 261 261 260 260 259 258 258 259 260 260 260 260 261 260 257 253 253 253 253 251 250 247 246 246 246 246 246 246 246 246 247 247 247 246 244 241 240 238
263 263 262 262 262 262 262 263 263 263 262 262 261 261 261 260 259 259 259 259 259 259 260 261 261 259 256 254 253 252 251 250 248 246 246 245 245 245 246 246 247 247 247 247 246 245 244 242 240
264 264 264 263 263 263 263 263 263 262 262 262 263 262 262 261 260 260 259 259 259 259 260 261 262 261 258 256 254 252 252 251 249 247 246 245 244 244 245 245 246 247 246 246 246 245 245 243 241
264 265 266 265 265 265 265 264 263 263 262 263 263 263 262 261 261 260 261 261 260 259 260 260 261 261 259 256 254 253 251 251 250 247 245 244 244 244 244 244 245 247 248 247 247 246 245 243 242
265 266 265 266 267 266 265 264 264 263 263 263 263 263 262 261 262 261 261 260 260 260 260 260 260 260 258 256 255 254 253 251 249 247 245 244 244 244 244 245 244 247 248 249 249 246 244 243 243
267 267 267 267 268 267 266 265 264 263 263 263 264 264 263 262 262 262 262 261 260 260 260 260 260 259 257 255 255 254 253 251 250 248 245 244 245 244 243 245 245 246 248 248 248 246 245 244 243
268 268 268 268 268 267 266 265 264 263 263 263 265 264 263 263 264 263 263 262 261 261 261 260 260 259 257 255 254 254 253 252 250 249 247 246 245 244 243 244 246 247 247 248 248 247 245 244 243
269 268 268 269 268 267 267 266 266 264 264 264 264 264 264 264 264 264 263 263 261 261 261 261 260 258 256 255 254 254 253 251 250 250 248 246 245 245 245 245 246 247 247 247 247 246 245 244 244
269 269 268 269 268 266 266 266 267 266 265 264 264 263 263 263 263 263 263 261 261 261 262 261 260 259 257 256 254 253 253 252 252 252 249 247 246 245 245 245 246 247 247 247 246 245 244 245 245
270 269 269 269 269 268 267 267 266 265 265 265 264 263 263 263 263 263 262 262 261 261 262 261 260 259 257 256 255 255 255 254 253 253 251 249 248 246 245 246 246 246 246 246 245 245 243 244 245
270 270 271 270 269 268 266 266 265 264 264 264 263 264 263 262 262 262 261 261 261 261 262 261 261 260 258 256 255 255 256 255 253 252 251 249 247 246 245 246 247 248 248 247 246 245 244 245 245
273 273 271 270 269 267 265 264 263 262 262 263 262 262 263 261 260 260 261 261 261 262 262 260 260 260 259 258 257 256 257 256 255 252 251 251 249 247 246 247 249 249 247 247 248 248 247 247 247
272 271 270 269 268 266 265 263 262 262 261 261 261 261 260 260 260 260 259 260 260 262 263 260 260 260 260 259 258 257 257 256 254 253 251 250 250 249 248 248 249 249 248 248 248 249 248 247 248
271 271 270 268 267 267 265 263 262 262 261 260 259 258 259 258 258 258 259 260 260 262 261 260 260 260 261 259 258 258 258 257 255 255 252 250 250 249 248 249 249 249 249 248 249 250 248 248 250
270 270 269 268 267 267 266 264 263 263 261 259 258 258 258 259 259 258 259 260 260 261 259 260 260 260 261 259 258 258 260 259 257 256 254 252 252 251 252 249 250 250 250 250 249 248 247 249 251
271 270 269 268 267 267 266 266 262 263 262 260 259 258 257 258 259 259 260 260 260 260 258 258 260 260 260 260 260 261 260 260 258 256 254 254 255 253 252 250 251 250 250 250 248 248 248 248 250
272 270 269 268 267 267 266 267 264 264 263 262 261 259 258 257 258 259 259 259 259 258 257 258 258 259 259 260 261 262 262 260 258 257 255 255 255 253 253 252 251 250 249 248 248 248 248 249 250
270 269 268 267 267 266 266 267 266 265 264 263 261 259 257 256 257 257 257 257 258 257 257 258 258 259 259 260 261 262 262 261 260 259 259 256 254 253 253 254 251 250 248 248 248 248 249 250 250
269 269 268 268 267 266 267 266 266 266 266 263 260 258 256 256 256 256 255 257 257 258 258 258 259 259 259 260 260 261 262 261 263 262 259 257 254 253 253 254 251 249 248 248 248 248 250 251 251
268 268 268 269 268 268 266 266 267 268 267 264 261 259 256 255 255 254 254 256 257 257 258 258 258 259 260 260 259 260 261 261 263 263 260 258 256 255 254 252 250 249 248 249 250 250 251 251 251
266 265 267 269 269 268 267 266 266 266 265 264 262 260 257 255 254 254 255 256 257 257 257 257 258 260 261 261 259 258 259 260 261 261 260 260 258 257 255 254 253 251 249 250 252 251 251 251 252
265 265 265 266 268 269 268 266 265 265 266 265 263 260 258 254 253 254 255 256 256 257 257 256 258 260 261 261 259 259 259 259 260 259 258 258 257 256 255 255 254 252 251 250 251 251 252 253 253
262 262 262 262 263 266 267 266 266 266 266 265 262 259 257 255 252 253 253 255 257 257 258 257 258 260 261 261 261 260 259 259 259 260 260 259 259 258 257 254 253 253 252 252 252 251 252 254 254
262 262 260 259 259 261 264 263 264 265 264 262 261 259 257 255 253 253 254 254 256 257 259 258 258 259 259 260 261 261 260 259 260 260 261 261 260 259 257 255 255 255 255 255 255 254 254 255 256